• en Belgique
  • Liste des pays
  • À 7 jours
  • Température de l'eau
  • Carte satellitaire
  • Carte météo
  • Widgets météo
  • user-avatar
    Se connecter

    Météo par heure à Anvers

    Ce jour, 25 Novembre, Samedi

    Heure Température Précipitation Vent Pression Humidité
    00:00 +7°C° 0,4 mm 1 m/s 757 mmHg 85%
    01:00 +7°C° 0 mm 1 m/s 757 mmHg 85%
    02:00 +6°C° 0 mm 1 m/s 757 mmHg 85%
    03:00 +6°C° 0 mm 1 m/s 756 mmHg 85%
    04:00 +6°C° 0 mm 1 m/s 757 mmHg 86%
    05:00 +5°C° 0 mm 1 m/s 757 mmHg 86%
    06:00 +5°C° 0 mm 1 m/s 757 mmHg 86%
    07:00 +5°C° 0 mm 2 m/s 757 mmHg 83%
    08:00 +5°C° 0 mm 2 m/s 757 mmHg 80%
    09:00 +6°C° 0 mm 2 m/s 758 mmHg 77%
    10:00 +5°C° 0,1 mm 3 m/s 758 mmHg 72%
    11:00 +6°C° 0,1 mm 4 m/s 759 mmHg 67%
    12:00 +7°C° 0,1 mm 4 m/s 759 mmHg 62%
    13:00 +6°C° 0,3 mm 5 m/s 759 mmHg 65%
    14:00 +6°C° 0,3 mm 5 m/s 760 mmHg 69%
    15:00 +5°C° 0,3 mm 5 m/s 760 mmHg 72%
    16:00 +5°C° 0,2 mm 4 m/s 761 mmHg 73%
    17:00 +4°C° 0,2 mm 4 m/s 761 mmHg 73%
    18:00 +4°C° 0,2 mm 4 m/s 762 mmHg 73%
    19:00 +3°C° 0 mm 4 m/s 762 mmHg 74%
    20:00 +3°C° 0 mm 4 m/s 763 mmHg 75%
    21:00 +3°C° 0 mm 3 m/s 763 mmHg 76%
    22:00 +1°C° 0 mm 4 m/s 764 mmHg 77%
    23:00 +1°C° 0 mm 4 m/s 764 mmHg 78%

    Demain, 26 Novembre, Dimanche

    Heure Température Précipitation Vent Pression Humidité
    00:00 +1°C° 0 mm 4 m/s 764 mmHg 79%
    01:00 +1°C° 0 mm 4 m/s 765 mmHg 79%
    02:00 +1°C° 0 mm 4 m/s 765 mmHg 80%
    03:00 +1°C° 0 mm 5 m/s 765 mmHg 80%
    04:00 +1°C° 0,1 mm 5 m/s 765 mmHg 80%
    05:00 +1°C° 0,1 mm 5 m/s 765 mmHg 80%
    06:00 +1°C° 0,1 mm 5 m/s 765 mmHg 81%
    07:00 +1°C° 0,2 mm 5 m/s 766 mmHg 79%
    08:00 +2°C° 0,2 mm 5 m/s 766 mmHg 78%
    09:00 +2°C° 0,2 mm 5 m/s 767 mmHg 77%
    10:00 +3°C° 0,2 mm 6 m/s 767 mmHg 73%
    11:00 +4°C° 0,2 mm 6 m/s 767 mmHg 70%
    12:00 +5°C° 0,2 mm 6 m/s 767 mmHg 66%
    13:00 +4°C° 0,1 mm 6 m/s 767 mmHg 68%
    14:00 +5°C° 0,1 mm 5 m/s 767 mmHg 70%
    15:00 +5°C° 0,1 mm 5 m/s 768 mmHg 71%
    16:00 +3°C° 0 mm 5 m/s 768 mmHg 74%
    17:00 +3°C° 0 mm 5 m/s 768 mmHg 76%
    18:00 +2°C° 0 mm 5 m/s 769 mmHg 78%
    19:00 +3°C° 0 mm 4 m/s 769 mmHg 78%
    20:00 +3°C° 0 mm 4 m/s 769 mmHg 79%
    21:00 +3°C° 0 mm 4 m/s 770 mmHg 79%
    22:00 +3°C° 0 mm 4 m/s 770 mmHg 79%
    23:00 +3°C° 0 mm 4 m/s 770 mmHg 79%

    Après-demain, 27 Novembre, Lundi

    Heure Température Précipitation Vent Pression Humidité
    00:00 +2°C° 0 mm 5 m/s 770 mmHg 80%
    01:00 +2°C° 0 mm 5 m/s 770 mmHg 80%
    02:00 +2°C° 0 mm 5 m/s 770 mmHg 80%
    03:00 +2°C° 0 mm 5 m/s 769 mmHg 79%
    04:00 +2°C° 0 mm 5 m/s 769 mmHg 80%
    05:00 +2°C° 0 mm 5 m/s 769 mmHg 80%
    06:00 +1°C° 0 mm 6 m/s 769 mmHg 80%
    07:00 +2°C° 0 mm 6 m/s 768 mmHg 79%
    08:00 +2°C° 0 mm 6 m/s 768 mmHg 78%
    09:00 +3°C° 0 mm 6 m/s 768 mmHg 77%
    10:00 +4°C° 0 mm 7 m/s 767 mmHg 76%
    11:00 +5°C° 0 mm 8 m/s 767 mmHg 75%
    12:00 +6°C° 0 mm 8 m/s 766 mmHg 73%
    13:00 +6°C° 0,3 mm 8 m/s 765 mmHg 75%
    14:00 +6°C° 0,3 mm 8 m/s 764 mmHg 77%
    15:00 +6°C° 0,3 mm 9 m/s 764 mmHg 79%
    16:00 +6°C° 1,3 mm 8 m/s 763 mmHg 81%
    17:00 +6°C° 1,3 mm 8 m/s 763 mmHg 84%
    18:00 +6°C° 1,3 mm 8 m/s 762 mmHg 86%
    19:00 +6°C° 0,8 mm 8 m/s 762 mmHg 87%
    20:00 +6°C° 0,8 mm 7 m/s 761 mmHg 87%
    21:00 +6°C° 0,8 mm 7 m/s 761 mmHg 87%
    22:00 +6°C° 0,5 mm 7 m/s 760 mmHg 87%
    23:00 +5°C° 0,5 mm 6 m/s 760 mmHg 88%

    28 Novembre, Mardi

    Heure Température Précipitation Vent Pression Humidité
    00:00 +5°C° 0,5 mm 6 m/s 759 mmHg 88%
    01:00 +5°C° 0,3 mm 6 m/s 758 mmHg 88%
    02:00 +5°C° 0,3 mm 6 m/s 757 mmHg 88%
    03:00 +5°C° 0,3 mm 6 m/s 757 mmHg 88%
    04:00 +5°C° 0,4 mm 6 m/s 756 mmHg 88%
    05:00 +5°C° 0,4 mm 7 m/s 755 mmHg 87%
    06:00 +4°C° 0,4 mm 7 m/s 754 mmHg 87%
    07:00 +4°C° 0,5 mm 7 m/s 753 mmHg 87%
    08:00 +4°C° 0,5 mm 7 m/s 752 mmHg 87%
    09:00 +4°C° 0,5 mm 7 m/s 752 mmHg 87%
    10:00 +5°C° 0,5 mm 7 m/s 751 mmHg 87%
    11:00 +5°C° 0,5 mm 7 m/s 750 mmHg 86%
    12:00 +5°C° 0,5 mm 7 m/s 749 mmHg 86%
    13:00 +5°C° 0,7 mm 7 m/s 749 mmHg 86%
    14:00 +5°C° 0,7 mm 6 m/s 748 mmHg 86%
    15:00 +5°C° 0,7 mm 6 m/s 748 mmHg 87%
    16:00 +6°C° 0,4 mm 5 m/s 748 mmHg 85%
    17:00 +6°C° 0,4 mm 5 m/s 748 mmHg 82%
    18:00 +6°C° 0,4 mm 4 m/s 747 mmHg 80%
    19:00 +5°C° 0,1 mm 4 m/s 748 mmHg 81%
    20:00 +4°C° 0,1 mm 4 m/s 748 mmHg 81%
    21:00 +4°C° 0,1 mm 4 m/s 748 mmHg 81%
    22:00 +4°C° 0 mm 4 m/s 748 mmHg 82%
    23:00 +4°C° 0 mm 4 m/s 748 mmHg 82%

    29 Novembre, Mercredi

    Heure Température Précipitation Vent Pression Humidité
    00:00 +3°C° 0 mm 4 m/s 748 mmHg 82%
    01:00 +3°C° 0 mm 4 m/s 748 mmHg 84%
    02:00 +3°C° 0 mm 4 m/s 749 mmHg 85%
    03:00 +1°C° 0 mm 4 m/s 749 mmHg 86%
    04:00 +1°C° 0 mm 4 m/s 749 mmHg 88%
    05:00 +1°C° 0 mm 3 m/s 749 mmHg 90%
    06:00 +1°C° 0 mm 3 m/s 749 mmHg 91%
    07:00 +2°C° 0 mm 2 m/s 750 mmHg 90%
    08:00 +3°C° 0 mm 2 m/s 750 mmHg 89%
    09:00 +3°C° 0 mm 2 m/s 751 mmHg 88%
    10:00 +4°C° 0 mm 2 m/s 751 mmHg 84%
    11:00 +6°C° 0 mm 1 m/s 751 mmHg 81%
    12:00 +7°C° 0 mm 1 m/s 752 mmHg 78%
    13:00 +6°C° 0,1 mm 1 m/s 752 mmHg 80%
    14:00 +6°C° 0,1 mm 1 m/s 752 mmHg 82%
    15:00 +5°C° 0,1 mm 2 m/s 753 mmHg 84%
    16:00 +5°C° 0,2 mm 2 m/s 753 mmHg 85%
    17:00 +4°C° 0,2 mm 3 m/s 754 mmHg 86%
    18:00 +4°C° 0,2 mm 3 m/s 754 mmHg 87%
    19:00 +4°C° 0,1 mm 3 m/s 755 mmHg 87%
    20:00 +3°C° 0,1 mm 3 m/s 755 mmHg 87%
    21:00 +3°C° 0,1 mm 3 m/s 756 mmHg 87%
    22:00 +3°C° 0,1 mm 3 m/s 756 mmHg 87%
    23:00 +2°C° 0,1 mm 3 m/s 756 mmHg 87%

    30 Novembre, Jeudi

    Heure Température Précipitation Vent Pression Humidité
    00:00 +3°C° 0,1 mm 2 m/s 756 mmHg 87%
    01:00 +2°C° 0 mm 3 m/s 756 mmHg 86%
    02:00 +2°C° 0 mm 3 m/s 756 mmHg 85%
    03:00 +2°C° 0 mm 3 m/s 757 mmHg 85%
    04:00 +2°C° 0,1 mm 3 m/s 757 mmHg 84%
    05:00 +2°C° 0,1 mm 3 m/s 757 mmHg 83%
    06:00 +3°C° 0,1 mm 3 m/s 757 mmHg 82%
    07:00 +3°C° 0,2 mm 3 m/s 757 mmHg 80%
    08:00 +4°C° 0,2 mm 4 m/s 758 mmHg 78%
    09:00 +4°C° 0,2 mm 4 m/s 758 mmHg 77%
    10:00 +5°C° 0,2 mm 5 m/s 758 mmHg 72%
    11:00 +5°C° 0,2 mm 5 m/s 758 mmHg 68%
    12:00 +5°C° 0,2 mm 6 m/s 758 mmHg 64%
    13:00 +4°C° 0,4 mm 6 m/s 758 mmHg 67%
    14:00 +4°C° 0,4 mm 6 m/s 757 mmHg 69%
    15:00 +4°C° 0,4 mm 7 m/s 757 mmHg 72%
    16:00 +3°C° 0,2 mm 7 m/s 757 mmHg 73%
    17:00 +3°C° 0,2 mm 7 m/s 757 mmHg 75%
    18:00 +2°C° 0,2 mm 7 m/s 757 mmHg 76%
    19:00 +2°C° 0,1 mm 7 m/s 757 mmHg 76%
    20:00 +1°C° 0,1 mm 8 m/s 756 mmHg 76%
    21:00 +1°C° 0,1 mm 9 m/s 756 mmHg 76%
    22:00 +2°C° 1,4 mm 8 m/s 755 mmHg 76%
    23:00 +3°C° 1,4 mm 7 m/s 755 mmHg 76%
    Voir plus